EW4963 Weather Reports


Display with metric or nautical units.
time (UTC)temp
F
wind
direction
speed
MPH
gust
MPH
rain 1hr
in
rain 24hr
in
rain mn
in
humidity
%
barometer
mb
20210625002237 90 113 3.0 9.0 0.00 0.00 0.00 63 1008.1
20210625001737 90 192 3.0 9.0 0.00 0.00 0.00 64 1008.1
20210625001237 91 100 3.0 10.0 0.00 0.00 0.00 64 1008.1
20210625000728 91 184 3.0 11.0 0.00 0.00 0.00 63 1008.1
20210625000228 91 118 3.0 11.0 0.00 0.00 0.00 63 1008.2
20210624235729 91 151 3.0 8.0 0.00 0.00 0.00 63 1008.2
20210624235226 91 132 4.0 10.0 0.00 0.00 0.00 63 1008.2
20210624234725 91 132 3.0 10.0 0.00 0.00 0.00 63 1008.2
20210624234225 91 111 3.0 8.0 0.00 0.00 0.00 64 1008.3
20210624233724 91 122 3.0 8.0 0.00 0.00 0.00 64 1008.3
20210624233223 91 140 4.0 9.0 0.00 0.00 0.00 63 1008.3
20210624232723 92 105 4.0 9.0 0.00 0.00 0.00 63 1008.2
20210624232223 92 158 4.0 13.0 0.00 0.00 0.00 63 1008.2
20210624231727 92 169 4.0 13.0 0.00 0.00 0.00 62 1008.2
20210624231222 92 167 4.0 11.0 0.00 0.00 0.00 62 1008.3
20210624230721 92 105 4.0 11.0 0.00 0.00 0.00 62 1008.3
20210624230219 93 122 4.0 11.0 0.00 0.00 0.00 62 1008.3
20210624225719 93 113 4.0 12.0 0.00 0.00 0.00 61 1008.3
20210624225217 93 122 4.0 12.0 0.00 0.00 0.00 61 1008.4
20210624224716 94 113 5.0 12.0 0.00 0.00 0.00 60 1008.4
20210624224219 94 123 4.0 10.0 0.00 0.00 0.00 60 1008.5
20210624223717 95 112 4.0 10.0 0.00 0.00 0.00 59 1008.5
20210624223216 95 107 3.0 9.0 0.00 0.00 0.00 59 1008.5
20210624222715 95 221 3.0 13.0 0.00 0.00 0.00 59 1008.8
20210624222213 95 88 4.0 13.0 0.00 0.00 0.00 59 1008.8
20210624221713 96 200 5.0 10.0 0.00 0.00 0.00 58 1008.8
20210624221212 96 217 4.0 10.0 0.00 0.00 0.00 58 1008.8
20210624220710 96 169 3.0 10.0 0.00 0.00 0.00 58 1008.8
20210624220208 96 110 4.0 8.0 0.00 0.00 0.00 59 1008.8
20210624215700 96 144 4.0 12.0 0.00 0.00 0.00 60 1008.9
20210624215200 96 190 4.0 12.0 0.00 0.00 0.00 59 1008.9
20210624214700 96 132 3.0 9.0 0.00 0.00 0.00 58 1008.9
20210624214158 97 86 4.0 9.0 0.00 0.00 0.00 58 1009.0
20210624213700 97 157 4.0 9.0 0.00 0.00 0.00 58 1009.0
20210624213156 97 190 3.0 9.0 0.00 0.00 0.00 59 1009.0
20210624212650 97 156 4.0 9.0 0.00 0.00 0.00 59 1009.4
20210624212149 97 120 4.0 11.0 0.00 0.00 0.00 58 1009.4
20210624211651 97 153 4.0 11.0 0.00 0.00 0.00 58 1009.4
20210624211148 97 92 4.0 12.0 0.00 0.00 0.00 58 1009.5
20210624210649 97 117 4.0 12.0 0.00 0.00 0.00 59 1009.5
20210624210146 98 86 4.0 10.0 0.00 0.00 0.00 57 1009.5
20210624205644 98 117 4.0 10.0 0.00 0.00 0.00 56 1009.6
20210624205144 98 252 4.0 12.0 0.00 0.00 0.00 58 1009.6
20210624204642 98 122 3.0 12.0 0.00 0.00 0.00 56 1009.7
20210624204141 99 219 3.0 8.0 0.00 0.00 0.00 56 1009.7
20210624203640 99 142 4.0 15.0 0.00 0.00 0.00 55 1009.7
20210624203137 99 253 4.0 15.0 0.00 0.00 0.00 53 1009.7
20210624202635 99 188 3.0 7.0 0.00 0.00 0.00 53 1009.9
20210624202129 99 213 3.0 8.0 0.00 0.00 0.00 53 1009.9
20210624201630 99 142 3.0 9.0 0.00 0.00 0.00 54 1009.9
20210624200625 99 223 4.0 10.0 0.00 0.00 0.00 52 1010.1
20210624200122 99 118 4.0 10.0 0.00 0.00 0.00 54 1010.1
20210624195623 99 238 3.0 10.0 0.00 0.00 0.00 53 1010.2
20210624195119 99 151 4.0 9.0 0.00 0.00 0.00 54 1010.2
20210624194619 99 128 4.0 9.0 0.00 0.00 0.00 53 1010.2
20210624194116 99 229 3.0 10.0 0.00 0.00 0.00 53 1010.5
20210624193616 99 125 3.0 10.0 0.00 0.00 0.00 52 1010.4
20210624193118 98 160 3.0 10.0 0.00 0.00 0.00 53 1010.5
20210624192615 98 167 4.0 8.0 0.00 0.00 0.00 52 1010.5
20210624192116 98 196 4.0 8.0 0.00 0.00 0.00 52 1010.5
20210624191617 98 163 3.0 10.0 0.00 0.00 0.00 51 1010.8
20210624191111 99 95 4.0 12.0 0.00 0.00 0.00 51 1010.8
20210624190611 99 249 3.0 10.0 0.00 0.00 0.00 50 1010.8
20210624190115 99 207 2.0 9.0 0.00 0.00 0.00 51 1011.0
20210624185608 99 190 3.0 9.0 0.00 0.00 0.00 50 1011.0
20210624185109 99 214 3.0 9.0 0.00 0.00 0.00 51 1010.9
20210624184607 99 182 2.0 9.0 0.00 0.00 0.00 51 1011.1
20210624184107 98 175 3.0 7.0 0.00 0.00 0.00 51 1011.1
20210624183609 98 225 3.0 8.0 0.00 0.00 0.00 52 1011.1
20210624183109 98 222 3.0 9.0 0.00 0.00 0.00 53 1011.1
20210624182608 98 111 3.0 10.0 0.00 0.00 0.00 52 1011.1
20210624182108 98 250 2.0 10.0 0.00 0.00 0.00 52 1011.1
20210624181606 97 239 2.0 11.0 0.00 0.00 0.00 53 1011.3
20210624181106 96 122 4.0 11.0 0.00 0.00 0.00 55 1011.2
20210624180551 96 204 4.0 11.0 0.00 0.00 0.00 53 1011.2
20210624180106 97 196 3.0 9.0 0.00 0.00 0.00 54 1011.3
20210624175552 96 171 3.0 8.0 0.00 0.00 0.00 55 1011.3
20210624175053 96 144 4.0 10.0 0.00 0.00 0.00 55 1011.3
20210624174549 96 130 4.0 10.0 0.00 0.00 0.00 56 1011.5
20210624174050 96 231 3.0 10.0 0.00 0.00 0.00 55 1011.5
20210624173548 96 207 2.0 8.0 0.00 0.00 0.00 56 1011.5
20210624173045 95 95 4.0 9.0 0.00 0.00 0.00 55 1011.6
20210624172547 95 196 4.0 11.0 0.00 0.00 0.00 55 1011.6
20210624172041 95 212 3.0 11.0 0.00 0.00 0.00 57 1011.6
20210624171541 95 248 3.0 7.0 0.00 0.00 0.00 57 1011.5
20210624171043 94 249 3.0 8.0 0.00 0.00 0.00 57 1011.5
20210624170540 94 115 3.0 9.0 0.00 0.00 0.00 57 1011.5
20210624170054 94 198 3.0 9.0 0.00 0.00 0.00 59 1011.5
20210624165534 94 144 4.0 10.0 0.00 0.00 0.00 58 1011.5
20210624165033 94 215 4.0 10.0 0.00 0.00 0.00 57 1011.5
20210624164532 94 223 2.0 9.0 0.00 0.00 0.00 58 1011.5
20210624164032 93 279 2.0 7.0 0.00 0.00 0.00 58 1011.5
20210624163532 93 235 3.0 9.0 0.00 0.00 0.00 58 1011.4
20210624163030 92 238 4.0 14.0 0.00 0.00 0.00 60 1011.5
20210624162530 92 209 3.0 14.0 0.00 0.00 0.00 59 1011.5
20210624162030 92 61 3.0 8.0 0.00 0.00 0.00 59 1011.5
20210624161528 92 201 3.0 8.0 0.00 0.00 0.00 59 1011.5
20210624161028 92 246 3.0 7.0 0.00 0.00 0.00 59 1011.5
20210624160527 92 211 3.0 8.0 0.00 0.00 0.00 61 1011.5
20210624160040 91 216 2.0 8.0 0.00 0.00 0.00 61 1011.6
20210624155527 91 241 3.0 10.0 0.00 0.00 0.00 63 1011.6
20210624155027 90 150 4.0 10.0 0.00 0.00 0.00 62 1011.5
20210624154527 90 224 2.0 9.0 0.00 0.00 0.00 66 1011.8
20210624154028 90 117 3.0 9.0 0.00 0.00 0.00 66 1011.8
20210624153524 89 88 3.0 9.0 0.00 0.00 0.00 66 1011.8
20210624153025 89 96 3.0 7.0 0.00 0.00 0.00 68 1011.7
20210624152525 88 155 3.0 8.0 0.00 0.00 0.00 68 1011.6
20210624152023 88 74 3.0 9.0 0.00 0.00 0.00 69 1011.6
20210624151523 87 198 3.0 9.0 0.00 0.00 0.00 69 1011.4
20210624151021 87 82 3.0 8.0 0.00 0.00 0.00 71 1011.4
20210624150521 87 179 3.0 8.0 0.00 0.00 0.00 72 1011.4
20210624150021 86 76 4.0 10.0 0.00 0.00 0.00 72 1011.5
20210624145521 86 192 4.0 11.0 0.00 0.00 0.00 72 1011.5
20210624145022 86 190 3.0 11.0 0.00 0.00 0.00 73 1011.4
20210624144520 86 256 3.0 8.0 0.00 0.00 0.00 74 1011.5
20210624144023 85 134 2.0 7.0 0.00 0.00 0.00 75 1011.5
20210624143515 85 227 2.0 9.0 0.00 0.00 0.00 77 1011.5
20210624143017 85 101 2.0 9.0 0.00 0.00 0.00 79 1011.6
20210624142515 84 156 3.0 8.0 0.00 0.00 0.00 80 1011.6
20210624142011 83 144 3.0 8.0 0.00 0.00 0.00 79 1011.5
20210624141510 83 155 3.0 7.0 0.00 0.00 0.00 80 1011.3
20210624141008 83 157 3.0 7.0 0.00 0.00 0.00 82 1011.3
20210624140509 82 187 3.0 12.0 0.00 0.00 0.00 82 1011.3
20210624140008 82 119 4.0 12.0 0.00 0.00 0.00 83 1011.4
20210624135507 82 213 4.0 9.0 0.00 0.00 0.00 84 1011.3
20210624135007 81 121 3.0 8.0 0.00 0.00 0.00 85 1011.3
20210624134507 81 130 3.0 8.0 0.00 0.00 0.00 86 1011.3
20210624134006 81 237 3.0 9.0 0.00 0.00 0.00 87 1011.3
20210624133506 80 245 3.0 9.0 0.00 0.00 0.00 88 1011.3
20210624133005 80 171 2.0 8.0 0.00 0.00 0.00 89 1011.3
20210624132505 80 147 2.0 8.0 0.00 0.00 0.00 90 1011.2
20210624132005 79 161 3.0 11.0 0.00 0.00 0.00 90 1011.2
20210624131505 79 121 3.0 11.0 0.00 0.00 0.00 91 1011.0
20210624131004 79 186 3.0 8.0 0.00 0.00 0.00 92 1011.0
20210624130503 79 159 3.0 8.0 0.00 0.00 0.00 92 1011.0
20210624130008 78 95 3.0 8.0 0.00 0.00 0.00 93 1011.0
20210624125501 78 188 3.0 7.0 0.00 0.00 0.00 93 1011.0
20210624125003 78 229 2.0 7.0 0.00 0.00 0.00 94 1011.0
20210624124457 78 219 2.0 7.0 0.00 0.00 0.00 94 1011.0
20210624123957 78 276 2.0 7.0 0.00 0.00 0.00 94 1011.0
20210624123452 78 156 3.0 6.0 0.00 0.00 0.00 94 1011.0
20210624122949 78 213 2.0 6.0 0.00 0.00 0.00 94 1010.7
20210624122448 78 168 2.0 6.0 0.00 0.00 0.00 94 1010.7
20210624121948 78 113 1.0 5.0 0.00 0.00 0.00 95 1010.7
20210624121449 78 176 1.0 5.0 0.00 0.00 0.00 95 1010.5
20210624120947 78 146 1.0 4.0 0.00 0.00 0.00 95 1010.5
20210624120444 78 168 1.0 6.0 0.00 0.00 0.00 95 1010.5
20210624115945 78 169 2.0 6.0 0.00 0.00 0.00 95 1010.4
20210624115443 78 164 2.0 6.0 0.00 0.00 0.00 95 1010.4
20210624114942 78 229 2.0 6.0 0.00 0.00 0.00 95 1010.4
20210624114443 78 67 2.0 6.0 0.00 0.00 0.00 95 1010.2
20210624113941 78 187 1.0 5.0 0.00 0.00 0.00 95 1010.2
20210624113441 78 132 2.0 6.0 0.00 0.00 0.00 95 1010.2
20210624112939 78 120 2.0 7.0 0.00 0.00 0.00 95 1009.9
20210624112438 78 252 2.0 7.0 0.00 0.00 0.00 95 1009.9
20210624111939 78 213 2.0 7.0 0.00 0.00 0.00 95 1009.9
20210624111426 78 142 2.0 6.0 0.00 0.00 0.00 95 1010.2
20210624110929 78 215 2.0 6.0 0.00 0.00 0.00 95 1010.2
20210624110425 78 171 2.0 6.0 0.00 0.00 0.00 95 1010.2
20210624105925 78 173 2.0 9.0 0.00 0.00 0.00 95 1010.0
20210624105419 78 132 2.0 9.0 0.00 0.00 0.00 95 1010.0
20210624104916 79 120 2.0 7.0 0.00 0.00 0.00 95 1010.0
20210624104415 79 144 3.0 8.0 0.00 0.00 0.00 95 1009.8
20210624103915 79 150 2.0 8.0 0.00 0.00 0.00 95 1009.8
20210624103416 79 111 2.0 6.0 0.00 0.00 0.00 95 1009.8
20210624102912 79 92 2.0 9.0 0.00 0.00 0.00 95 1009.8
20210624102407 79 146 2.0 9.0 0.00 0.00 0.00 95 1009.8
20210624101855 79 182 2.0 7.0 0.00 0.00 0.00 95 1009.8
20210624101356 79 128 2.0 6.0 0.00 0.00 0.00 94 1009.9
20210624100857 79 133 2.0 7.0 0.00 0.00 0.00 94 1009.9
20210624100356 79 109 1.0 7.0 0.00 0.00 0.00 94 1009.9
20210624095854 79 160 1.0 7.0 0.00 0.00 0.00 94 1009.8
20210624095350 79 200 2.0 7.0 0.00 0.00 0.00 94 1009.8
20210624094848 79 156 2.0 6.0 0.00 0.00 0.00 94 1009.8
20210624094350 79 173 2.0 6.0 0.00 0.00 0.00 94 1009.6
20210624093844 79 165 2.0 9.0 0.00 0.00 0.00 94 1009.6
20210624093345 79 142 2.0 9.0 0.00 0.00 0.00 93 1009.6
20210624092844 79 163 2.0 6.0 0.00 0.00 0.00 93 1009.4
20210624092343 79 184 1.0 7.0 0.00 0.00 0.00 93 1009.4
20210624091843 79 153 2.0 7.0 0.00 0.00 0.00 93 1009.5
20210624091342 79 156 2.0 9.0 0.00 0.00 0.00 93 1009.4
20210624090842 79 101 2.0 9.0 0.00 0.00 0.00 93 1009.4
20210624090341 79 150 2.0 9.0 0.00 0.00 0.00 93 1009.4
20210624085840 79 63 2.0 9.0 0.00 0.00 0.00 92 1009.3
20210624085341 79 95 1.0 5.0 0.00 0.00 0.00 92 1009.3
20210624084838 79 230 2.0 7.0 0.00 0.00 0.00 92 1009.3
20210624084339 79 119 2.0 7.0 0.00 0.00 0.00 92 1009.3
20210624083831 79 165 2.0 9.0 0.00 0.00 0.00 92 1009.3
20210624083330 79 62 2.0 9.0 0.00 0.00 0.00 91 1009.3
20210624082831 79 169 2.0 5.0 0.00 0.00 0.00 91 1009.5
20210624082330 79 94 1.0 5.0 0.00 0.00 0.00 91 1009.5
20210624081827 79 197 1.0 5.0 0.00 0.00 0.00 90 1009.5
20210624081328 80 123 1.0 6.0 0.00 0.00 0.00 90 1009.4
20210624080829 80 113 1.0 6.0 0.00 0.00 0.00 90 1009.4
20210624080316 80 147 1.0 6.0 0.00 0.00 0.00 90 1009.4
20210624075816 80 111 1.0 6.0 0.00 0.00 0.00 90 1009.3
20210624075315 80 184 2.0 5.0 0.00 0.00 0.00 90 1009.3
20210624074819 80 97 2.0 5.0 0.00 0.00 0.00 89 1009.3
20210624074315 80 138 2.0 6.0 0.00 0.00 0.00 89 1009.3
20210624073815 80 75 2.0 7.0 0.00 0.00 0.00 89 1009.3
20210624073316 80 109 2.0 6.0 0.00 0.00 0.00 89 1009.3
20210624072816 80 160 2.0 7.0 0.00 0.00 0.00 89 1009.3
20210624072317 80 41 3.0 7.0 0.00 0.00 0.00 89 1009.3
20210624071810 80 117 2.0 6.0 0.00 0.00 0.00 89 1009.3
20210624071308 80 113 3.0 6.0 0.00 0.00 0.00 88 1009.3
20210624070800 80 244 3.0 7.0 0.00 0.00 0.00 88 1009.3
20210624070300 80 160 2.0 7.0 0.00 0.00 0.00 88 1009.3
20210624065801 80 133 2.0 6.0 0.00 0.00 0.00 88 1009.3
20210624065258 80 193 2.0 5.0 0.00 0.00 0.00 88 1009.3
20210624064800 80 175 2.0 6.0 0.00 0.00 0.00 88 1009.3
20210624064254 80 91 2.0 6.0 0.00 0.00 0.00 87 1009.4
20210624063755 80 121 2.0 5.0 0.00 0.00 0.00 87 1009.4
20210624063255 80 148 2.0 5.0 0.00 0.00 0.00 87 1009.4
20210624062755 80 129 2.0 5.0 0.00 0.00 0.00 87 1009.6
20210624062252 80 94 2.0 5.0 0.00 0.00 0.00 87 1009.6
20210624061753 80 135 2.0 6.0 0.00 0.00 0.00 87 1009.6
20210624061250 80 140 2.0 6.0 0.00 0.00 0.00 87 1009.8
20210624060750 80 135 2.0 6.0 0.00 0.00 0.00 86 1009.8
20210624060251 80 125 3.0 6.0 0.00 0.00 0.00 86 1009.8
20210624055747 80 81 2.0 7.0 0.00 0.00 0.00 86 1009.7
20210624055246 80 104 2.0 7.0 0.00 0.00 0.00 86 1009.7
20210624054751 80 130 1.0 5.0 0.00 0.00 0.00 86 1009.7
20210624054250 80 150 1.0 6.0 0.00 0.00 0.00 86 1009.9
20210624053746 80 105 1.0 7.0 0.00 0.00 0.00 86 1009.9
20210624053237 80 138 1.0 7.0 0.00 0.00 0.00 86 1009.9
20210624052736 80 111 2.0 6.0 0.00 0.00 0.00 86 1009.9
20210624052237 80 148 1.0 6.0 0.00 0.00 0.00 85 1009.9
20210624051737 81 101 1.0 6.0 0.00 0.00 0.00 85 1009.9
20210624051236 81 86 2.0 6.0 0.00 0.00 0.00 85 1010.0
20210624050738 81 130 1.0 5.0 0.00 0.00 0.00 85 1010.0
20210624050237 81 94 1.0 6.0 0.00 0.00 0.00 85 1010.0
20210624045724 81 112 1.0 6.0 0.00 0.00 0.00 84 1010.0
20210624045223 81 149 1.0 6.0 0.00 0.00 0.00 84 1010.0
20210624044723 81 158 1.0 4.0 0.00 0.00 0.00 83 1010.0
20210624044223 81 154 1.0 5.0 0.00 0.00 0.00 83 1010.0
20210624043724 81 146 1.0 5.0 0.00 0.00 0.00 83 1010.0
20210624043209 81 111 1.0 5.0 0.00 0.00 0.00 82 1010.0
20210624042707 81 130 1.0 4.0 0.00 0.00 0.00 82 1009.8
20210624042206 82 123 1.0 4.0 0.00 0.00 0.00 82 1009.8
20210624041706 82 123 2.0 5.0 0.00 0.00 0.00 82 1009.8
20210624041206 82 148 2.0 5.0 0.00 0.00 0.00 81 1009.7
20210624040706 82 144 2.0 5.0 0.00 0.00 0.00 81 1009.7
20210624040208 82 106 2.0 5.0 0.00 0.00 0.00 81 1009.7
20210624035706 82 126 1.0 5.0 0.00 0.00 0.00 80 1009.6
20210624035205 82 123 1.0 4.0 0.00 0.00 0.00 80 1009.6
20210624034705 83 111 1.0 5.0 0.00 0.00 0.00 79 1009.6
20210624034208 83 107 1.0 5.0 0.00 0.00 0.00 79 1009.6
20210624033701 83 126 1.0 5.0 0.00 0.00 0.00 79 1009.6
20210624033201 83 145 1.0 5.0 0.00 0.00 0.00 78 1009.7
20210624032701 83 128 1.0 5.0 0.00 0.00 0.00 78 1009.7
20210624032159 83 92 1.0 5.0 0.00 0.00 0.00 78 1009.7
20210624031650 83 127 1.0 5.0 0.00 0.00 0.00 78 1009.7
20210624031139 84 128 1.0 5.0 0.00 0.00 0.00 77 1009.7
20210624030636 84 143 2.0 6.0 0.00 0.00 0.00 77 1009.7
20210624030139 84 137 2.0 6.0 0.00 0.00 0.00 77 1009.7
20210624025637 84 150 2.0 7.0 0.00 0.00 0.00 77 1009.5
20210624025136 84 109 2.0 7.0 0.00 0.00 0.00 76 1009.5
20210624024634 84 109 2.0 6.0 0.00 0.00 0.00 77 1009.5
20210624024129 85 101 3.0 8.0 0.00 0.00 0.00 77 1009.1
20210624023627 85 190 2.0 8.0 0.00 0.00 0.00 77 1009.1
20210624023127 85 102 2.0 8.0 0.00 0.00 0.00 77 1009.1
20210624022628 85 160 3.0 8.0 0.00 0.00 0.00 77 1009.1
20210624022127 85 142 2.0 6.0 0.00 0.00 0.00 76 1009.1
20210624021629 85 111 2.0 6.0 0.00 0.00 0.00 76 1009.1
20210624021126 85 117 2.0 8.0 0.00 0.00 0.00 76 1009.1
20210624020625 86 90 2.0 8.0 0.00 0.00 0.00 76 1009.1
20210624020123 86 113 2.0 6.0 0.00 0.00 0.00 76 1009.1
20210624015622 86 165 3.0 8.0 0.00 0.00 0.00 76 1009.2
20210624015123 86 100 3.0 8.0 0.00 0.00 0.00 76 1009.2
20210624014618 87 181 2.0 7.0 0.00 0.00 0.00 75 1009.2
20210624014118 87 174 2.0 5.0 0.00 0.00 0.00 75 1009.2
20210624013618 87 92 2.0 7.0 0.00 0.00 0.00 74 1009.2
20210624013119 87 95 2.0 7.0 0.00 0.00 0.00 74 1009.2
20210624012615 88 96 1.0 5.0 0.00 0.00 0.00 73 1009.0
20210624012116 88 118 1.0 5.0 0.00 0.00 0.00 73 1009.0
20210624011617 88 138 1.0 5.0 0.00 0.00 0.00 72 1009.0
20210624011116 88 92 2.0 7.0 0.00 0.00 0.00 72 1009.0
20210624010615 89 152 2.0 7.0 0.00 0.00 0.00 71 1009.0
20210624010117 89 95 2.0 6.0 0.00 0.00 0.00 70 1008.9
20210624005615 89 111 2.0 6.0 0.00 0.00 0.00 69 1009.0
20210624005115 89 117 2.0 7.0 0.00 0.00 0.00 69 1009.0
20210624004610 89 130 2.0 8.0 0.00 0.00 0.00 68 1009.0
20210624004113 89 117 2.0 8.0 0.00 0.00 0.00 67 1009.0
20210624003608 90 153 3.0 7.0 0.00 0.00 0.00 66 1009.0
20210624003110 90 32 3.0 9.0 0.00 0.00 0.00 66 1009.0